• In Deutschland
  • Länderverzeichnis
  • Für 7 Tage
  • Wassertemperatur
  • Satellitenkarten
  • Wetterkarte
  • Widgets
  • user-avatar
    Anmelden

    Stündliche Wetter Jechegnadsor

    Heute, 21 August, Montag

    Zeit Temperatur Niederschläge Wind Luftdruck Luftfeuchtigkeit
    00:00 +23°C° 0 mm 2 m/S 654 mmHg 56%
    01:00 +23°C° 0 mm 2 m/S 654 mmHg 55%
    02:00 +21°C° 0 mm 2 m/S 654 mmHg 55%
    03:00 +23°C° 0 mm 2 m/S 654 mmHg 51%
    04:00 +23°C° 0 mm 2 m/S 654 mmHg 51%
    05:00 +23°C° 0 mm 2 m/S 654 mmHg 51%
    06:00 +23°C° 0 mm 2 m/S 654 mmHg 51%
    07:00 +25°C° 0 mm 2 m/S 655 mmHg 46%
    08:00 +27°C° 0 mm 2 m/S 655 mmHg 40%
    09:00 +29°C° 0 mm 1 m/S 655 mmHg 35%
    10:00 +30°C° 0 mm 2 m/S 655 mmHg 33%
    11:00 +31°C° 0 mm 2 m/S 655 mmHg 31%
    12:00 +33°C° 0 mm 3 m/S 655 mmHg 29%
    13:00 +34°C° 0 mm 3 m/S 655 mmHg 28%
    14:00 +34°C° 0 mm 3 m/S 655 mmHg 26%
    15:00 +34°C° 0 mm 3 m/S 654 mmHg 25%
    16:00 +34°C° 0 mm 2 m/S 654 mmHg 28%
    17:00 +32°C° 0 mm 2 m/S 654 mmHg 32%
    18:00 +31°C° 0 mm 2 m/S 653 mmHg 35%
    19:00 +29°C° 0 mm 2 m/S 653 mmHg 42%
    20:00 +27°C° 0 mm 2 m/S 653 mmHg 48%
    21:00 +25°C° 0 mm 2 m/S 653 mmHg 55%
    22:00 +25°C° 0 mm 2 m/S 653 mmHg 56%
    23:00 +24°C° 0 mm 2 m/S 653 mmHg 56%

    Morgen, 22 August, Dienstag

    Zeit Temperatur Niederschläge Wind Luftdruck Luftfeuchtigkeit
    00:00 +24°C° 0 mm 2 m/S 653 mmHg 57%
    01:00 +24°C° 0 mm 2 m/S 653 mmHg 54%
    02:00 +23°C° 0 mm 2 m/S 653 mmHg 52%
    03:00 +23°C° 0 mm 1 m/S 653 mmHg 50%
    04:00 +23°C° 0 mm 1 m/S 653 mmHg 49%
    05:00 +23°C° 0 mm 1 m/S 653 mmHg 47%
    06:00 +23°C° 0 mm 1 m/S 653 mmHg 46%
    07:00 +25°C° 0 mm 1 m/S 653 mmHg 41%
    08:00 +28°C° 0 mm 1 m/S 654 mmHg 35%
    09:00 +30°C° 0 mm 1 m/S 654 mmHg 30%
    10:00 +31°C° 0 mm 2 m/S 654 mmHg 27%
    11:00 +32°C° 0 mm 2 m/S 654 mmHg 24%
    12:00 +35°C° 0 mm 3 m/S 654 mmHg 22%
    13:00 +35°C° 0 mm 3 m/S 654 mmHg 21%
    14:00 +35°C° 0 mm 3 m/S 653 mmHg 20%
    15:00 +36°C° 0 mm 3 m/S 653 mmHg 19%
    16:00 +35°C° 0 mm 2 m/S 653 mmHg 22%
    17:00 +34°C° 0 mm 2 m/S 652 mmHg 26%
    18:00 +32°C° 0 mm 2 m/S 652 mmHg 30%
    19:00 +30°C° 0 mm 2 m/S 652 mmHg 35%
    20:00 +28°C° 0 mm 2 m/S 652 mmHg 41%
    21:00 +26°C° 0 mm 3 m/S 652 mmHg 46%
    22:00 +25°C° 0 mm 3 m/S 652 mmHg 46%
    23:00 +25°C° 0 mm 3 m/S 652 mmHg 47%

    übermorgen, 23 August, Mittwoch

    Zeit Temperatur Niederschläge Wind Luftdruck Luftfeuchtigkeit
    00:00 +24°C° 0 mm 3 m/S 652 mmHg 47%
    01:00 +24°C° 0 mm 2 m/S 652 mmHg 47%
    02:00 +24°C° 0 mm 2 m/S 652 mmHg 47%
    03:00 +23°C° 0 mm 2 m/S 652 mmHg 46%
    04:00 +23°C° 0 mm 2 m/S 652 mmHg 46%
    05:00 +23°C° 0 mm 2 m/S 652 mmHg 46%
    06:00 +23°C° 0 mm 2 m/S 652 mmHg 46%
    07:00 +26°C° 0 mm 2 m/S 653 mmHg 40%
    08:00 +28°C° 0 mm 2 m/S 653 mmHg 34%
    09:00 +30°C° 0 mm 2 m/S 654 mmHg 28%
    10:00 +32°C° 0 mm 2 m/S 654 mmHg 25%
    11:00 +34°C° 0 mm 3 m/S 654 mmHg 23%
    12:00 +36°C° 0 mm 4 m/S 654 mmHg 21%
    13:00 +36°C° 0 mm 4 m/S 654 mmHg 20%
    14:00 +36°C° 0 mm 3 m/S 653 mmHg 20%
    15:00 +37°C° 0 mm 3 m/S 653 mmHg 19%
    16:00 +35°C° 0 mm 3 m/S 653 mmHg 23%
    17:00 +34°C° 0 mm 3 m/S 653 mmHg 27%
    18:00 +32°C° 0 mm 2 m/S 653 mmHg 30%
    19:00 +30°C° 0 mm 3 m/S 653 mmHg 35%
    20:00 +28°C° 0 mm 3 m/S 653 mmHg 40%
    21:00 +26°C° 0 mm 3 m/S 653 mmHg 45%
    22:00 +25°C° 0 mm 3 m/S 653 mmHg 46%
    23:00 +24°C° 0 mm 3 m/S 653 mmHg 48%

    24 August, Donnerstag

    Zeit Temperatur Niederschläge Wind Luftdruck Luftfeuchtigkeit
    00:00 +22°C° 0 mm 3 m/S 654 mmHg 49%
    01:00 +22°C° 0 mm 3 m/S 654 mmHg 51%
    02:00 +21°C° 0 mm 3 m/S 654 mmHg 53%
    03:00 +21°C° 0 mm 2 m/S 654 mmHg 55%
    04:00 +21°C° 0 mm 2 m/S 654 mmHg 55%
    05:00 +21°C° 0 mm 2 m/S 654 mmHg 56%
    06:00 +21°C° 0 mm 2 m/S 654 mmHg 57%
    07:00 +24°C° 0 mm 2 m/S 655 mmHg 49%
    08:00 +26°C° 0 mm 2 m/S 656 mmHg 41%
    09:00 +29°C° 0 mm 2 m/S 656 mmHg 34%
    10:00 +30°C° 0 mm 2 m/S 656 mmHg 31%
    11:00 +31°C° 0 mm 2 m/S 656 mmHg 28%
    12:00 +34°C° 0 mm 3 m/S 656 mmHg 25%
    13:00 +34°C° 0 mm 3 m/S 656 mmHg 24%
    14:00 +34°C° 0 mm 3 m/S 656 mmHg 23%
    15:00 +35°C° 0 mm 3 m/S 656 mmHg 22%
    16:00 +34°C° 0 mm 3 m/S 655 mmHg 26%
    17:00 +33°C° 0 mm 3 m/S 655 mmHg 29%
    18:00 +30°C° 0 mm 3 m/S 655 mmHg 32%
    19:00 +29°C° 0 mm 3 m/S 655 mmHg 37%
    20:00 +27°C° 0 mm 3 m/S 655 mmHg 42%
    21:00 +25°C° 0 mm 3 m/S 655 mmHg 46%
    22:00 +24°C° 0 mm 3 m/S 655 mmHg 46%
    23:00 +24°C° 0 mm 3 m/S 655 mmHg 46%

    25 August, Freitag

    Zeit Temperatur Niederschläge Wind Luftdruck Luftfeuchtigkeit
    00:00 +22°C° 0 mm 3 m/S 655 mmHg 46%
    01:00 +23°C° 0 mm 2 m/S 655 mmHg 46%
    02:00 +21°C° 0 mm 2 m/S 655 mmHg 46%
    03:00 +21°C° 0 mm 2 m/S 655 mmHg 46%
    04:00 +21°C° 0 mm 2 m/S 656 mmHg 46%
    05:00 +21°C° 0 mm 2 m/S 656 mmHg 45%
    06:00 +21°C° 0 mm 2 m/S 656 mmHg 45%
    07:00 +24°C° 0 mm 2 m/S 656 mmHg 39%
    08:00 +26°C° 0 mm 2 m/S 657 mmHg 33%
    09:00 +29°C° 0 mm 2 m/S 658 mmHg 27%
    10:00 +30°C° 0 mm 2 m/S 657 mmHg 25%
    11:00 +31°C° 0 mm 2 m/S 657 mmHg 23%
    12:00 +32°C° 0 mm 2 m/S 657 mmHg 21%
    13:00 +34°C° 0 mm 2 m/S 657 mmHg 21%
    14:00 +34°C° 0 mm 2 m/S 656 mmHg 20%
    15:00 +35°C° 0 mm 3 m/S 656 mmHg 20%
    16:00 +33°C° 0 mm 3 m/S 656 mmHg 22%
    17:00 +31°C° 0 mm 2 m/S 656 mmHg 25%
    18:00 +30°C° 0 mm 2 m/S 656 mmHg 28%
    19:00 +28°C° 0 mm 3 m/S 656 mmHg 31%
    20:00 +26°C° 0 mm 3 m/S 656 mmHg 34%
    21:00 +24°C° 0 mm 3 m/S 655 mmHg 37%
    22:00 +22°C° 0 mm 3 m/S 655 mmHg 37%
    23:00 +22°C° 0 mm 3 m/S 655 mmHg 38%

    26 August, Samstag

    Zeit Temperatur Niederschläge Wind Luftdruck Luftfeuchtigkeit
    00:00 +21°C° 0 mm 3 m/S 655 mmHg 38%
    01:00 +21°C° 0 mm 3 m/S 655 mmHg 39%
    02:00 +20°C° 0 mm 3 m/S 655 mmHg 40%
    03:00 +20°C° 0 mm 2 m/S 655 mmHg 41%
    04:00 +20°C° 0 mm 2 m/S 655 mmHg 41%
    05:00 +20°C° 0 mm 2 m/S 655 mmHg 41%
    06:00 +19°C° 0 mm 2 m/S 656 mmHg 41%
    07:00 +23°C° 0 mm 2 m/S 656 mmHg 35%
    08:00 +25°C° 0 mm 2 m/S 657 mmHg 30%
    09:00 +28°C° 0 mm 2 m/S 657 mmHg 24%
    10:00 +29°C° 0 mm 2 m/S 657 mmHg 23%
    11:00 +30°C° 0 mm 2 m/S 657 mmHg 22%
    12:00 +31°C° 0 mm 2 m/S 656 mmHg 20%
    13:00 +32°C° 0 mm 2 m/S 656 mmHg 20%
    14:00 +33°C° 0 mm 3 m/S 656 mmHg 20%
    15:00 +33°C° 0 mm 3 m/S 655 mmHg 20%
    16:00 +31°C° 0 mm 3 m/S 655 mmHg 23%
    17:00 +30°C° 0 mm 3 m/S 655 mmHg 26%
    18:00 +29°C° 0 mm 2 m/S 655 mmHg 29%
    19:00 +27°C° 0 mm 3 m/S 655 mmHg 34%
    20:00 +25°C° 0 mm 3 m/S 655 mmHg 38%
    21:00 +22°C° 0 mm 3 m/S 655 mmHg 43%
    22:00 +21°C° 0 mm 3 m/S 655 mmHg 43%
    23:00 +21°C° 0 mm 3 m/S 655 mmHg 44%
    Mehr zeigen